Change the Weather History Date:

Sunday, September 1, 2013

  Actual Average Record
Temperature  
Mean Temperature 70 °F 61 °F  
Max Temperature 81 °F 73 °F 84 °F (1973)
Min Temperature 59 °F 50 °F 34 °F (2009)
Degree Days  
Heating Degree Days 0 2  
Month to date heating degree days 0 2  
Since 1 July heating degree days 136 155  
Cooling Degree Days 5 1  
Month to date cooling degree days 5 1  
Year to date cooling degree days 300 178  
Growing Degree Days 20 (Base 50)    
Moisture  
Dew Point 62 °F    
Average Humidity 78    
Maximum Humidity 97    
Minimum Humidity 58    
Precipitation  
Precipitation T in 0.13 in 1.19 in (1965)
Month to date precipitation T 0.13  
Year to date precipitation 21.41 30.08  
Sea Level Pressure  
Sea Level Pressure 29.86 in    
Wind  
Wind Speed 2 mph (SE)    
Max Wind Speed 13 mph    
Max Gust Speed 22 mph    
Visibility 4 miles    
Events Fog , Rain    
T = Trace of Precipitation, MM = Missing Value Source: NWS Daily Summary

Daily Weather History Graph

Daily Weather History Graph

Search for Another Location

Airport or City:

Trip Planner

Search our weather history database for the weather conditions in past years. The results will help you decide how hot, cold, wet, or windy it might be!

Date:

Astronomy

Sep. 01, 2013 Rise Set
Actual Time 6:40 AM EDT 7:47 PM EDT
Civil Twilight 6:11 AM EDT 8:16 PM EDT
Nautical Twilight 5:37 AM EDT 8:50 PM EDT
Astronomical Twilight 5:01 AM EDT 9:25 PM EDT
Moon 2:58 AM EDT (9/1) 5:25 PM EDT (9/1)
Length of Visible Light 14h 04m
Length of Day
13h 06m
Waning Crescent, 14% of the Moon is Illuminated
Sep 1
Waning Crescent
Sep 5
New
Sep 12
First Quarter
Sep 19
Full
Sep 26
Last Quarter

Hourly Weather History & Observations

Time (EDT) Temp. Heat Index Dew Point Humidity Pressure Visibility Wind Dir Wind Speed Gust Speed Precip Events Conditions
12:25 AM 64.9 °F - 63.0 °F 93% 29.89 in 2.5 mi Calm Calm - N/A   Partly Cloudy
12:28 AM 64.9 °F - 63.0 °F 93% 29.88 in 1.0 mi SE 3.5 mph - N/A   Mist
12:33 AM 64.9 °F - 62.1 °F 90% 29.88 in 0.2 mi ESE 3.5 mph - N/A Fog Fog
12:48 AM 64.4 °F - 62.6 °F 94% 29.88 in 0.8 mi Calm Calm - N/A   Mist
12:53 AM 64.0 °F - 62.1 °F 93% 29.82 in 2.5 mi Calm Calm - N/A   Scattered Clouds
1:00 AM 64.9 °F - 63.0 °F 93% 29.87 in 3.0 mi Calm Calm - N/A   Partly Cloudy
1:03 AM 64.9 °F - 62.1 °F 90% 29.87 in 1.8 mi Calm Calm - N/A   Partly Cloudy
1:12 AM 64.9 °F - 62.1 °F 90% 29.87 in 4.0 mi Calm Calm - N/A   Partly Cloudy
1:24 AM 64.0 °F - 62.1 °F 93% 29.87 in 1.5 mi Calm Calm - N/A   Partly Cloudy
1:28 AM 64.0 °F - 62.1 °F 93% 29.86 in 0.8 mi Calm Calm - N/A   Mist
1:53 AM 63.0 °F - 61.0 °F 93% 29.81 in 0.5 mi Calm Calm - N/A Fog Fog
2:00 AM 62.1 °F - 60.1 °F 93% 29.86 in 0.5 mi Calm Calm - N/A Fog Fog
2:30 AM 63.0 °F - 60.1 °F 90% 29.87 in 1.5 mi Calm Calm - N/A   Mostly Cloudy
2:48 AM 60.8 °F - 57.2 °F 88% 29.87 in 0.5 mi Calm Calm - N/A Fog Fog
2:53 AM 61.0 °F - 59.0 °F 93% 29.82 in 0.2 mi Calm Calm - N/A Fog Fog
3:16 AM 62.1 °F - 60.1 °F 93% 29.86 in 1.0 mi Calm Calm - N/A   Mist
3:26 AM 62.1 °F - 60.1 °F 93% 29.87 in 1.5 mi Calm Calm - N/A   Scattered Clouds
3:34 AM 60.1 °F - 57.9 °F 93% 29.87 in 0.8 mi SE 4.6 mph - N/A   Mist
3:43 AM 60.1 °F - 57.9 °F 93% 29.87 in 0.5 mi SSE 3.5 mph - N/A Fog Fog
3:47 AM 60.8 °F - 57.2 °F 88% 29.87 in 1.2 mi Calm Calm - N/A   Scattered Clouds
3:53 AM 59.0 °F - 57.9 °F 96% 29.82 in 1.5 mi Calm Calm - N/A   Mostly Cloudy
4:04 AM 60.1 °F - 57.9 °F 93% 29.87 in 1.8 mi Calm Calm - N/A   Mostly Cloudy
4:07 AM 61.0 °F - 57.9 °F 90% 29.87 in 3.0 mi Calm Calm - N/A   Mostly Cloudy
4:15 AM 61.0 °F - 59.0 °F 93% 29.88 in 5.0 mi Calm Calm - N/A   Overcast
4:23 AM 61.0 °F - 59.0 °F 93% 29.88 in 7.0 mi Calm Calm - N/A   Overcast
4:40 AM 62.1 °F - 59.0 °F 90% 29.88 in 2.5 mi ESE 3.5 mph - N/A   Overcast
4:51 AM 62.6 °F - 60.8 °F 94% 29.88 in 0.8 mi SE 3.5 mph - N/A   Overcast
4:52 AM 62.1 °F - 60.1 °F 93% 29.83 in 0.8 mi SSE 3.5 mph - N/A   Overcast
5:02 AM 62.1 °F - 61.0 °F 96% 29.88 in 0.2 mi ESE 3.5 mph - N/A Fog Fog
5:15 AM 63.0 °F - 61.0 °F 93% 29.88 in 0.2 mi SE 3.5 mph - N/A Fog Fog
5:53 AM 63.0 °F - 61.0 °F 93% 29.84 in 0.5 mi Calm Calm - N/A Fog Fog
6:01 AM 63.0 °F - 61.0 °F 93% 29.89 in 2.0 mi Calm Calm - N/A   Overcast
6:06 AM 63.0 °F - 61.0 °F 93% 29.89 in 4.0 mi Calm Calm - N/A   Overcast
6:15 AM 63.0 °F - 61.0 °F 93% 29.88 in 1.8 mi Calm Calm - N/A   Overcast
6:28 AM 63.0 °F - 62.1 °F 97% 29.89 in 0.5 mi Calm Calm - N/A Fog Fog
6:53 AM 64.0 °F - 62.1 °F 93% 29.85 in 0.5 mi East 3.5 mph - N/A Fog Fog
7:10 AM 64.9 °F - 63.0 °F 93% 29.90 in 0.2 mi Calm Calm - N/A Fog Fog
7:53 AM 64.9 °F - 63.0 °F 93% 29.85 in 0.2 mi Calm Calm - N/A Fog Fog
8:53 AM 66.0 °F - 64.0 °F 93% 29.86 in 0.2 mi Calm Calm - N/A Fog Fog
9:34 AM 66.0 °F - 64.0 °F 93% 29.90 in 1.0 mi Calm Calm - N/A   Overcast
9:43 AM 66.0 °F - 64.0 °F 93% 29.90 in 3.0 mi Calm Calm - N/A   Overcast
9:53 AM 66.9 °F - 64.9 °F 93% 29.86 in 5.0 mi Calm Calm - N/A   Overcast
10:10 AM 66.9 °F - 64.0 °F 90% 29.90 in 5.0 mi SSE 3.5 mph - N/A   Overcast
10:49 AM 66.2 °F - 64.4 °F 94% 29.91 in 6.0 mi Calm Calm - N/A   Overcast
10:53 AM 66.0 °F - 63.0 °F 90% 29.87 in 7.0 mi Calm Calm - N/A   Overcast
11:00 AM 70.0 °F - 63.0 °F 78% 29.91 in 7.0 mi Calm Calm - N/A   Overcast
11:16 AM 71.1 °F - 63.0 °F 75% 29.90 in 8.0 mi Calm Calm - N/A   Overcast
11:53 AM 75.0 °F - 63.0 °F 66% 29.85 in 9.0 mi South 5.8 mph - N/A   Scattered Clouds
12:11 PM 73.9 °F - 63.0 °F 68% 29.89 in 9.0 mi SW 4.6 mph - N/A   Mostly Cloudy
12:21 PM 75.0 °F - 63.0 °F 66% 29.89 in 9.0 mi South 4.6 mph - N/A   Scattered Clouds
12:53 PM 77.0 °F - 63.0 °F 62% 29.83 in 10.0 mi Variable 6.9 mph - N/A   Mostly Cloudy
1:53 PM 78.1 °F - 64.0 °F 62% 29.83 in 10.0 mi South 8.1 mph - N/A   Mostly Cloudy
2:08 PM 78.1 °F - 64.9 °F 64% 29.87 in 10.0 mi Variable 4.6 mph - N/A   Mostly Cloudy
2:53 PM 79.0 °F - 64.9 °F 62% 29.82 in 10.0 mi Variable 4.6 mph - N/A   Mostly Cloudy
3:53 PM 80.1 °F 81.9 °F 64.9 °F 60% 29.80 in 10.0 mi Calm Calm - N/A   Mostly Cloudy
4:53 PM 80.1 °F 81.9 °F 64.9 °F 60% 29.79 in 10.0 mi SW 5.8 mph - N/A   Mostly Cloudy
5:51 PM 71.6 °F - 64.4 °F 78% 29.84 in 2.5 mi SSE 5.8 mph - 0.00 in Rain Light Rain
5:53 PM 72.0 °F - 64.0 °F 76% 29.80 in 2.5 mi South 4.6 mph - 0.00 in Rain Light Rain
6:00 PM 72.0 °F - 64.0 °F 76% 29.84 in 10.0 mi Calm Calm - 0.00 in   Scattered Clouds
6:53 PM 73.9 °F - 66.0 °F 76% 29.81 in 8.0 mi SSW 3.5 mph - 0.00 in   Clear
7:50 PM 71.6 °F - 64.4 °F 78% 29.85 in 10.0 mi North 8.1 mph - N/A   Mostly Cloudy
7:53 PM 70.0 °F - 64.9 °F 84% 29.81 in 10.0 mi North 6.9 mph - N/A   Mostly Cloudy
8:35 PM 70.0 °F - 64.9 °F 84% 29.86 in 10.0 mi ENE 3.5 mph - N/A   Overcast
8:53 PM 70.0 °F - 64.0 °F 81% 29.83 in 10.0 mi Calm Calm - N/A   Overcast
9:12 PM 69.1 °F - 64.0 °F 84% 29.87 in 10.0 mi ESE 3.5 mph - N/A   Mostly Cloudy
9:19 PM 69.1 °F - 64.0 °F 84% 29.87 in 10.0 mi Calm Calm - N/A   Mostly Cloudy
9:38 PM 68.0 °F - 64.9 °F 90% 29.87 in 10.0 mi SSE 3.5 mph - N/A   Scattered Clouds
9:53 PM 69.1 °F - 64.0 °F 84% 29.83 in 10.0 mi Calm Calm - N/A   Partly Cloudy
10:10 PM 69.1 °F - 64.0 °F 84% 29.88 in 10.0 mi Calm Calm - N/A   Mostly Cloudy
10:42 PM 68.0 °F - 64.0 °F 87% 29.88 in 10.0 mi Calm Calm - N/A   Scattered Clouds
10:53 PM 66.9 °F - 64.0 °F 90% 29.83 in 9.0 mi Calm Calm - N/A   Partly Cloudy
11:53 PM 69.1 °F - 66.0 °F 90% 29.81 in 4.0 mi Calm Calm - N/A   Scattered Clouds